x

Yucatan Basin - 120 Nm Ese Of Cozumel, Mx (42056) Wave Buoy

12:50 - Sun 1st Mar 2015 All times are CST. -6 hours from GMT.

  • Sig Wave height 5.2ft
  • Swell Direction
  • Peak Period 6s
  • Average Period 6s
  • Wind
    16mph, 18mph gusts
  • Sea Temp 80°f
  • Ar Temp 79°f
  • Sea Pressure 1018.4mb
  •  Yucatan Basin - 120 Nm Ese Of Cozumel, Mx
  •  Yucatan Basin - 120 Nm Ese Of Cozumel, Mx

More Historic Weather Station data

Upgrade to MSW Pro to gain access to the past 30 days of data for over 8000 Wavebouys and Weather Stations around the globe.

Join Pro

Comparision Forecast

View Surf forecast
   
Dom 03/01 12:50 5ft 6s 6s 16 18 mph 1018.4mb 80f 79f
Sáb 02/28 11:50 5.5ft 7s 6s 13 18 mph 1018.9mb 80f 79f
10:50 5ft 6s 5s 13 16 mph 1019.4mb 80f 79f
9:50 4.5ft 6s 5s 16 20 mph 1019.6mb 80f 79f
8:50 5ft 6s 5s 16 18 mph 1019.3mb 80f 80f
7:50 5ft 8s 5s 18 20 mph 1018.8mb 80f 80f
6:50 5ft 7s 5s 16 20 mph 1018.1mb 80f 80f
5:50 5.5ft 6s 5s 16 20 mph 1017.7mb 80f 80f
4:50 5ft 7s 5s 18 20 mph 1017.4mb 80f 80f
3:50 5ft 6s 5s 16 18 mph 1017.1mb 80f 80f
2:50 4.5ft 6s 5s 18 20 mph 1017.4mb 80f 80f
1:50 5ft 6s 5s 16 18 mph 1017.8mb 80f 80f
12:50 5ft 8s 5s 13 16 mph 1018.5mb 80f 80f
11:50 4.5ft 6s 5s 16 20 mph 1019.3mb 80f 80f
10:50 4.5ft 8s 5s 18 20 mph 1020.1mb 80f 80f
9:50 4.5ft 8s 5s 18 20 mph 1020.2mb 80f 80f
8:50 4.5ft 8s 5s 18 20 mph 1019.7mb 80f 80f
7:50 4.5ft 9s 5s 18 20 mph 1019mb 80f 78f
6:50 4.5ft 8s 5s 16 18 mph 1018.1mb 80f 80f
5:50 4.5ft 8s 5s 18 22 mph 1017.4mb 80f 79f
4:50 4.5ft 8s 5s 18 20 mph 1016.6mb 80f 79f
3:50 4.5ft 9s 5s 13 16 mph 1015.8mb 80f 79f
2:50 5ft 8s 5s 16 18 mph 1015.6mb 80f 80f
1:50 5ft 8s 5s 18 22 mph 1015.4mb 80f 80f
12:50 5ft 6s 5s 16 20 mph 1015.8mb 80f 79f
Sex 02/27 11:50 5ft 8s 5s 18 22 mph 1016.2mb 80f 79f
10:50 5ft 6s 5s 20 22 mph 1016.2mb 80f 78f
9:50 5.5ft 6s 5s 22 27 mph 1016.2mb 80f 79f
8:50 5ft 5s 5s 18 20 mph 1016.4mb 80f 79f
7:50 5.5ft 6s 5s 20 22 mph 1015.5mb 80f 80f
6:50 5ft 5s 5s 22 27 mph 1014.7mb 80f 80f
5:50 5ft 5s 5s 16 18 mph 1014.5mb 80f 80f
4:50 4.5ft 8s 5s 22 25 mph 1013.9mb 80f 79f
3:50 4ft 9s 5s 16 20 mph 1013.9mb 80f 80f
2:50 3.5ft 8s 5s 13 16 mph 1014mb 81f 80f
1:50 3.5ft 7s 5s 13 16 mph 1014.7mb 81f 80f
12:50 4ft 7s 5s 13 16 mph 1015.2mb 81f 80f
11:50 4ft 6s 5s 16 18 mph 1015.5mb 80f 80f
10:50 4ft 6s 5s 13 18 mph 1016.4mb 80f 80f
9:50 4ft 6s 5s 13 16 mph 1016.8mb 80f 80f
8:50 3.5ft 6s 5s 13 16 mph 1016.4mb 80f 80f
7:50 4ft 5s 5s 13 16 mph 1015.7mb 80f 80f
6:50 4.5ft 6s 5s 11 13 mph 1015.1mb 80f 80f
5:50 4.5ft 6s 5s 13 16 mph 1014mb 80f 79f
4:50 4.5ft 6s 5s 13 16 mph 1013.2mb 80f 80f
3:50 4.5ft 6s 5s 13 16 mph 1012.7mb 80f 80f
2:50 4.5ft 6s 5s 13 16 mph 1012.7mb 80f 80f
1:50 4.5ft 6s 5s 13 16 mph 1012.9mb 80f 80f
12:50 4.5ft 6s 5s 16 18 mph 1012.9mb 80f 80f
Qui 02/26 11:50 4.5ft 6s 5s 13 18 mph 1013.4mb 80f 80f
10:50 5ft 6s 5s 16 18 mph 1013.5mb 80f 80f
9:50 4.5ft 6s 5s 9 11 mph 1014mb 80f 80f
8:50 5ft 7s 5s 9 11 mph 1013.7mb 80f 80f
7:50 5ft 7s 5s 11 13 mph 1013.1mb 80f 80f
6:50 5.5ft 6s 5s 11 13 mph 1012.3mb 80f 80f
5:50 6ft 7s 5s 13 16 mph 1011.6mb 80f 80f
4:50 6ft 7s 6s 13 16 mph 1011.1mb 80f 80f
3:50 6ft 7s 6s 16 18 mph 1010.7mb 80f 80f
2:50 6ft 6s 5s 16 20 mph 1010.5mb 80f 81f
1:50 6ft 7s 5s 20 22 mph 1010.6mb 80f 80f
12:50 6ft 6s 5s 20 25 mph 1010.9mb 80f 80f
11:50 6.5ft 7s 5s 18 22 mph 1011.6mb 80f 80f
10:50 7ft 7s 5s 22 27 mph 1011.9mb 80f 81f
9:50 6ft 6s 5s 20 25 mph 1012.4mb 80f 80f
8:50 6.5ft 6s 5s 20 25 mph 1011.9mb 80f 80f
7:50 6ft 7s 5s 20 25 mph 1011.3mb 80f 80f
6:50 6ft 6s 5s 22 27 mph 1010.6mb 80f 80f
5:50 6ft 6s 5s 25 29 mph 1009.4mb 80f 80f
4:50 6ft 6s 5s 20 25 mph 1008.8mb 80f 80f
3:50 6ft 6s 5s 20 25 mph 1008.9mb 80f 80f
2:50 5ft 6s 5s 20 22 mph 1009.3mb 80f 79f
1:50 6ft 6s 5s 20 22 mph 1009.6mb 80f 80f
12:50 5.5ft 6s 5s 22 27 mph 1009.8mb 80f 79f
Qua 02/25 11:50 5ft 5s 5s 22 25 mph 1010.3mb 80f 79f
10:50 4.5ft 5s 5s 22 27 mph 1010.7mb 80f 80f
9:50 4.5ft 5s 5s 22 25 mph 1010.9mb 80f 80f
8:50 4.5ft 5s 5s 22 25 mph 1011.1mb 80f 80f
7:50 3.5ft 5s 4s 22 27 mph 1011mb 80f 80f
6:50 3.5ft 8s 4s 20 25 mph 1010.7mb 80f 80f
5:50 3.5ft 8s 4s 18 22 mph 1010.4mb 80f 80f
4:50 3.5ft 9s 5s 16 20 mph 1010.5mb 80f 80f
3:50 3.5ft 9s 5s 16 18 mph 1010.4mb 80f 80f
2:50 3.5ft 9s 4s 16 18 mph 1010.6mb 80f 80f
1:50 3.5ft 8s 5s 16 18 mph 1011.4mb 80f 80f
12:50 3.5ft 8s 5s 13 16 mph 1012mb 80f 80f
11:50 3ft 8s 5s 13 16 mph 1012.8mb 80f 80f
10:50 3ft 9s 5s 13 16 mph 1013.7mb 80f 80f
9:50 3ft 8s 5s 13 16 mph 1014.2mb 80f 80f
8:50 3.5ft 9s 5s 11 13 mph 1014.2mb 80f 79f